Darstellungsparameter: Aktuell verwendete Einstellungen:
Skalierung der Graphiken ... ?
xyx+y,   Skalierungsfaktor:      Skalierung: Modus: x, Faktor: 1
Darstellungszeitraum ... ?
Vom - - bis: - -   Zeitraum: 25.04.2013 - 21.10.2020
Min/Max/Avg-Anzeige ... ?
Zeige MMA aktuell
Zeige MMA Monat
Zeige MMA alles
Zeige --A aktuell
Zeige --A Monat
Zeige --A alles
Keine MMA-Anzeige
MMA:
Keine MMA-Graphiken
MMA-Basis: 25.04.2013 - 21.10.2020
Quicknavigation für Darstellung... ?
Tage:      1T, 2T, 3T, 5T -1T -2T -3T -5T +1T +2T +3T +5T
Wochen: 1W, 2W, 3W -1W -2W -3W +1W +2W +3W
Monate: 1M, 3M, 6M -1M -3M -6M +1M +3M +6M
Jahre:    1J, 3J, 5J, 10J -1J -3J -5J -10J +1J +3J +5J +10J
Nutze für die Darstellung ... ?
Originaldaten oder ...
Mittelwerte Minima Maxima auf...
Stundenbasis Tagesbasis Wochenbasis
Monatsbasis Jahresbasis      Datenbasis: Mittelwerte auf Monatsbasis
Darstellen als:
Statistik (Auto) Statistik J:M      Darstellung:

Der gewünschte Datumsbereich war nicht gültig/verfügbar und wurde korrigiert....
Das angegebene Enddatum (24.04.2023 23:59:59) liegt in der Zukunft.


Zur Graphik,    zurück zur Übersicht aller Sensoren.
 
Tabellarische Datenbersicht: ?
 
Sensor: Nr:Datum:Temp:Feuchte:
Aussen-T/F 1 01-04-2013 00:00:00 9.95498 C 56.8557 %
2 01-05-2013 00:00:00 12.85805 C 67.5096 %
3 01-06-2013 00:00:00 17.22616 C 61.7555 %
4 01-07-2013 00:00:00 21.41616 C 59.5054 %
5 01-08-2013 00:00:00 18.45446 C 66.4023 %
6 01-09-2013 00:00:00 14.55549 C 74.1608 %
7 01-10-2013 00:00:00 11.24639 C 81.8884 %
8 01-11-2013 00:00:00 5.5286 C 84.8765 %
9 01-12-2013 00:00:00 4.21169 C 83.4090 %
10 01-01-2014 00:00:00 4.29457 C 84.8548 %
11 01-02-2014 00:00:00 5.10232 C 77.0970 %
12 01-03-2014 00:00:00 7.69973 C 67.9739 %
13 01-04-2014 00:00:00 13.07461 C 61.8167 %
14 01-05-2014 00:00:00 14.50038 C 62.4742 %
15 01-06-2014 00:00:00 18.30492 C 56.1133 %
16 01-07-2014 00:00:00 20.68855 C 63.4024 %
17 01-08-2014 00:00:00 16.77881 C 72.4321 %
18 01-09-2014 00:00:00 15.83639 C 76.0633 %
19 01-10-2014 00:00:00 12.34808 C 84.8956 %
20 01-11-2014 00:00:00 7.28636 C 87.5264 %
21 01-12-2014 00:00:00 3.92785 C 82.7702 %
22 01-01-2015 00:00:00 2.97831 C 80.6874 %
23 01-02-2015 00:00:00 2.31857 C 76.6295 %
24 01-03-2015 00:00:00 5.96138 C 71.9744 %
25 01-04-2015 00:00:00 10.08708 C 59.7136 %
Sensor: Nr:Datum:Temp:Feuchte:
Aussen-T/F 26 01-05-2015 00:00:00 14.11318 C 59.4517 %
27 01-06-2015 00:00:00 17.77401 C 57.5986 %
28 01-07-2015 00:00:00 21.15383 C 54.0739 %
29 01-08-2015 00:00:00 20.48263 C 57.5941 %
30 01-09-2015 00:00:00 13.55056 C 71.9281 %
31 01-10-2015 00:00:00 9.14548 C 77.6403 %
32 01-11-2015 00:00:00 8.4055 C 72.4775 %
33 01-12-2015 00:00:00 7.12153 C 75.5180 %
34 01-01-2016 00:00:00 3.22931 C 62.7026 %
35 01-02-2016 00:00:00 4.165 C 51.7853 %
36 01-03-2016 00:00:00 4.93561 C 44.1567 %
37 01-04-2016 00:00:00 9.16442 C 37.4539 %
38 01-05-2016 00:00:00 14.75924 C 32.6705 %
39 01-06-2016 00:00:00 17.65994 C 35.2127 %
40 01-07-2016 00:00:00 20.08911 C 27.5656 %
41 01-08-2016 00:00:00 18.87739 C 29.3073 %
42 01-09-2016 00:00:00 17.13061 C 31.7786 %
43 01-10-2016 00:00:00 9.08215 C 46.4757 %
44 01-11-2016 00:00:00 4.67064 C 43.4678 %
45 01-12-2016 00:00:00 2.26987 C 40.0435 %
46 01-01-2017 00:00:00 -2.19691 C 36.8838 %
47 01-02-2017 00:00:00 4.27015 C 34.4211 %
48 01-03-2017 00:00:00 8.54404 C 27.9731 %
49 01-04-2017 00:00:00 9.26135 C 23.3120 %
50 01-05-2017 00:00:00 16.19457 C 28.5164 %
Sensor: Nr:Datum:Temp:Feuchte:
Aussen-T/F 51 01-06-2017 00:00:00 20.55944 C 24.3547 %
52 01-07-2017 00:00:00 20.21728 C 28.4570 %
53 01-08-2017 00:00:00 18.4762 C 33.8467 %
54 01-09-2017 00:00:00 13.44522 C 37.8506 %
55 01-10-2017 00:00:00 11.48467 C 37.2266 %
56 01-11-2017 00:00:00 5.59933 C 40.9328 %
57 01-12-2017 00:00:00 3.75323 C 39.8739 %
58 01-01-2018 00:00:00 5.36848 C 35.8409 %
59 01-02-2018 00:00:00 -1.17859 C 29.8779 %
60 01-03-2018 00:00:00 4.23042 C 31.3690 %
61 01-04-2018 00:00:00 13.19128 C 26.5381 %
62 01-05-2018 00:00:00 16.64449 C 26.4492 %
63 01-06-2018 00:00:00 19.40525 C 25.3293 %
64 01-07-2018 00:00:00 21.89989 C 23.1748 %
65 01-08-2018 00:00:00 20.62868 C 24.0022 %
66 01-09-2018 00:00:00 14.91236 C 29.7514 %
67 01-10-2018 00:00:00 10.54107 C 38.6585 %
68 01-11-2018 00:00:00 5.88289 C 45.9744 %
69 01-12-2018 00:00:00 4.73686 C 44.0385 %
70 01-01-2019 00:00:00 1.5978 C 43.1454 %
71 01-02-2019 00:00:00 3.65451 C 41.1675 %
72 01-03-2019 00:00:00 7.39063 C 33.8869 %
73 01-04-2019 00:00:00 10.58247 C 31.7733 %
74 01-05-2019 00:00:00 12.38287 C 32.8107 %
75 01-06-2019 00:00:00 20.835 C 27.2494 %
Sensor: Nr:Datum:Temp:Feuchte:
Aussen-T/F 76 01-07-2019 00:00:00 20.44202 C 26.3419 %
77 01-08-2019 00:00:00 19.51613 C 32.8091 %
78 01-09-2019 00:00:00 14.94058 C 25.1143 %
79 01-10-2019 00:00:00 11.2634 C 29.4072 %
80 01-11-2019 00:00:00 5.33172 C 33.1655 %
81 01-12-2019 00:00:00 4.23291 C 34.9906 %
82 01-01-2020 00:00:00 4.55685 C 35.5768 %
83 01-02-2020 00:00:00 6.22909 C 34.4696 %
84 01-03-2020 00:00:00 7.24858 C 33.5169 %
85 01-04-2020 00:00:00 12.24417 C 29.2609 %
86 01-05-2020 00:00:00 14.23692 C 30.6570 %
87 01-06-2020 00:00:00 18.59375 C 31.6620 %
88 01-07-2020 00:00:00 20.1657 C 29.0847 %
89 01-08-2020 00:00:00 21.81745 C 30.0045 %
90 01-09-2020 00:00:00 15.93141 C 33.8502 %
91 01-10-2020 00:00:00 10.31945 C 39.8896 %
Sensor: Nr:Datum:Temp:Feuchte:
G-T/H 1 01-04-2013 00:00:00 10.75229 C 65.5998 %
2 01-05-2013 00:00:00 13.59316 C 65.0701 %
3 01-06-2013 00:00:00 17.44237 C 65.2174 %
4 01-07-2013 00:00:00 21.12066 C 62.0421 %
5 01-08-2013 00:00:00 19.49462 C 65.0789 %
6 01-09-2013 00:00:00 16.31097 C 68.4217 %
7 01-10-2013 00:00:00 13.37908 C 74.5148 %
8 01-11-2013 00:00:00 9.73731 C 72.1335 %
9 01-12-2013 00:00:00 8.41734 C 71.6050 %
10 01-01-2014 00:00:00 8.43664 C 72.5707 %
11 01-02-2014 00:00:00 8.16932 C 72.4786 %
12 01-03-2014 00:00:00 9.44532 C 68.9903 %
13 01-04-2014 00:00:00 13.35018 C 64.4217 %
14 01-05-2014 00:00:00 14.92981 C 64.9573 %
15 01-06-2014 00:00:00 17.32917 C 65.7567 %
16 01-07-2014 00:00:00 20.00548 C 63.9858 %
17 01-08-2014 00:00:00 18.25496 C 68.0065 %
18 01-09-2014 00:00:00 16.80489 C 73.2339 %
19 01-10-2014 00:00:00 14.41275 C 77.4223 %
20 01-11-2014 00:00:00 10.97103 C 76.0556 %
21 01-12-2014 00:00:00 8.2211 C 71.9901 %
22 01-01-2015 00:00:00 7.7703 C 69.1616 %
23 01-02-2015 00:00:00 7.13586 C 66.7551 %
24 01-03-2015 00:00:00 8.41612 C 67.7166 %
25 01-04-2015 00:00:00 11.09708 C 63.7294 %
Sensor: Nr:Datum:Temp:Feuchte:
G-T/H 26 01-05-2015 00:00:00 14.19547 C 64.8971 %
27 01-06-2015 00:00:00 16.67323 C 66.6111 %
28 01-07-2015 00:00:00 20.51939 C 61.6550 %
29 01-08-2015 00:00:00 19.86438 C 65.2401 %
30 01-09-2015 00:00:00 15.79436 C 69.1406 %
31 01-10-2015 00:00:00 12.40588 C 71.0373 %
32 01-11-2015 00:00:00 11.21225 C 72.9081 %
33 01-12-2015 00:00:00 10.13892 C 74.2796 %
34 01-01-2016 00:00:00 7.64302 C 71.8879 %
35 01-02-2016 00:00:00 8.09267 C 68.5325 %
36 01-03-2016 00:00:00 8.1825 C 67.9887 %
37 01-04-2016 00:00:00 11.07583 C 64.9083 %
38 01-05-2016 00:00:00 15.2761 C 62.5518 %
39 01-06-2016 00:00:00 17.90226 C 67.6934 %
40 01-07-2016 00:00:00 20.10003 C 64.9435 %
41 01-08-2016 00:00:00 19.4175 C 64.7397 %
42 01-09-2016 00:00:00 18.43172 C 64.2644 %
43 01-10-2016 00:00:00 12.94515 C 70.3911 %
44 01-11-2016 00:00:00 9.75253 C 69.0194 %
45 01-12-2016 00:00:00 7.34774 C 68.8665 %
46 01-01-2017 00:00:00 5.78588 C 66.0199 %
47 01-02-2017 00:00:00 7.70223 C 68.6768 %
48 01-03-2017 00:00:00 10.22215 C 64.2345 %
49 01-04-2017 00:00:00 11.20314 C 60.0922 %
50 01-05-2017 00:00:00 15.89327 C 61.3444 %
Sensor: Nr:Datum:Temp:Feuchte:
G-T/H 51 01-06-2017 00:00:00 20.01789 C 59.0992 %
52 01-07-2017 00:00:00 20.4489 C 61.9742 %
53 01-08-2017 00:00:00 19.67435 C 66.9043 %
54 01-09-2017 00:00:00 15.81583 C 70.5583 %
55 01-10-2017 00:00:00 13.97215 C 75.4439 %
56 01-11-2017 00:00:00 10.18211 C 71.1925 %
57 01-12-2017 00:00:00 8.65464 C 70.0728 %
58 01-01-2018 00:00:00 9.24124 C 71.4843 %
59 01-02-2018 00:00:00 6.11414 C 63.0604 %
60 01-03-2018 00:00:00 7.82191 C 65.7965 %
61 01-04-2018 00:00:00 13.46933 C 63.2619 %
62 01-05-2018 00:00:00 16.5825 C 62.9239 %
63 01-06-2018 00:00:00 19.57993 C 64.3928 %
64 01-07-2018 00:00:00 21.75846 C 57.3052 %
65 01-08-2018 00:00:00 21.21202 C 59.8933 %
66 01-09-2018 00:00:00 17.25044 C 62.6903 %
67 01-10-2018 00:00:00 13.17796 C 70.6921 %
68 01-11-2018 00:00:00 10.29853 C 71.7781 %
69 01-12-2018 00:00:00 9.24784 C 72.2692 %
70 01-01-2019 00:00:00 7.73167 C 71.6374 %
71 01-02-2019 00:00:00 7.52868 C 74.0125 %
72 01-03-2019 00:00:00 9.54697 C 68.6915 %
73 01-04-2019 00:00:00 12.43878 C 60.5053 %
74 01-05-2019 00:00:00 14.02705 C 62.4539 %
75 01-06-2019 00:00:00 20.29078 C 60.8711 %
Sensor: Nr:Datum:Temp:Feuchte:
G-T/H 76 01-07-2019 00:00:00 20.63543 C 57.0358 %
77 01-08-2019 00:00:00 20.06379 C 62.0594 %
78 01-09-2019 00:00:00 16.70926 C 62.8330 %
79 01-10-2019 00:00:00 14.34293 C 73.1018 %
80 01-11-2019 00:00:00 10.35029 C 72.2176 %
81 01-12-2019 00:00:00 9.18533 C 73.1608 %
82 01-01-2020 00:00:00 8.94989 C 73.4400 %
83 01-02-2020 00:00:00 9.65747 C 72.0675 %
84 01-03-2020 00:00:00 10.07904 C 68.2814 %
85 01-04-2020 00:00:00 12.44058 C 59.6102 %
86 01-05-2020 00:00:00 13.02711 C 65.7864 %
87 01-08-2020 00:00:00 21.14171 C 59.2431 %
88 01-09-2020 00:00:00 17.52574 C 60.2106 %
89 01-10-2020 00:00:00 13.88106 C 70.8222 %

Maximal/Minimal-Werte vom 25.04.2013 - 21.10.2020

Sensor Min Max Avg
Temp
(Aussen-T/F)
-18.7 °C
20-06-2016  11:38:17
46.2 °C
19-06-2017  18:30:17
11.66 °C
Feuchte
(Aussen-T/F)
20 %
25-04-2013  14:09:59
95 %
11-10-2013  01:14:17
46.85 %
Temp
(G-T/H)
-6 °C
01-12-2016  10:32:18
29.7 °C
02-08-2013  17:35:01
13.53 °C
Feuchte
(G-T/H)
25 %
29-06-2019  18:04:17
85 %
16-10-2017  15:03:17
67.22 %

Die Daten stammen von einer Davis Vantage Pro 2 Wetter-Station und werden unter Linux mit der Software wview2wettercgi und aufbereitet. Alle Angaben erfolgen ohne Gewähr für ihre Vollständigkeit oder Richtigkeit.
Kontakt: Rainer Krienke krienke@uni-koblenz.de . Meine Webseiten an der Uni Koblenz oder privat.
Version: $Revision: 0.78 $